This is the latest recevied weather packets stored in our database for station/object KA5FVT. If no packets are shown the sender has not sent any weather packets the latest 10 day(s).
| Time | Temp. | Humidity | Pressure | Rain* | Wind** | Luminosity | Snow |
|---|---|---|---|---|---|---|---|
| 1777644267 | 17.22° C | 96% | 1012.1 hPa | 4.83 mm | - | - | - |
| 1777643967 | 17.22° C | 96% | 1011.9 hPa | 4.83 mm | - | - | - |
| 1777643066 | 17.22° C | 96% | 1011.8 hPa | 5.08 mm | - | - | - |
| 1777642166 | 17.22° C | 96% | 1012.4 hPa | 5.59 mm | - | - | - |
| 1777640366 | 17.22° C | 96% | 1012.3 hPa | 3.56 mm | - | - | - |
| 1777639166 | 17.22° C | 96% | 1011.3 hPa | 8.38 mm | - | - | - |
| 1777638867 | 17.22° C | 96% | 1011.1 hPa | 8.13 mm | - | - | - |
| 1777637666 | 17.22° C | 96% | 1011.1 hPa | 7.87 mm | - | - | - |
| 1777637366 | 17.22° C | 96% | 1011.3 hPa | 8.13 mm | - | - | - |
| 1777637067 | 17.22° C | 96% | 1010.7 hPa | 8.64 mm | - | - | - |
| 1777635569 | 17.22° C | 96% | 1010 hPa | 4.57 mm | - | - | - |
| 1777635266 | 17.22° C | 96% | 1009.8 hPa | 4.32 mm | - | - | - |
| 1777633166 | 17.78° C | 96% | 1011.1 hPa | 5.59 mm | - | - | - |
| 1777629266 | 18.33° C | 95% | 1010.1 hPa | 13.21 mm | - | - | - |
| 1777628966 | 18.33° C | 95% | 1009.6 hPa | 12.95 mm | - | - | - |
| 1777628366 | 18.33° C | 95% | 1011.4 hPa | 11.18 mm | - | - | - |
| 1777628066 | 18.33° C | 95% | 1011.8 hPa | 12.19 mm | - | - | - |
| 1777626566 | 18.33° C | 95% | 1009.6 hPa | 20.07 mm | - | - | - |
| 1777626266 | 18.33° C | 95% | 1009.6 hPa | 20.07 mm | - | - | - |
| 1777625970 | 18.33° C | 95% | 1009.6 hPa | 20.07 mm | - | - | - |
| 1777625066 | 18.89° C | 95% | 1010.4 hPa | 19.56 mm | - | - | - |
| 1777623267 | 18.89° C | 95% | 1011.1 hPa | 0.76 mm | - | - | - |
| 1777620869 | 18.89° C | 94% | 1010.4 hPa | 0.25 mm | - | - | - |
| 1777620567 | 18.89° C | 94% | 1010.3 hPa | 0.25 mm | - | - | - |
| 1777619067 | 19.44° C | 94% | 1010.7 hPa | 0 mm | - | - | - |
* Rain latest hour (hover to see other rain measurements)
** Current wind speed in m/s (hover to see current wind gust speed)